Flag for Germany Weather past 2 weeks in Bad Nauheim, Hesse, Germany

Now
79 °F

Overcast.


Feels Like: 81 °F
Forecast: 63 / 77 °F
Wind: 5 mph from Northeast

Location: Giessen

Current Time: Jul 28, 2014 at 5:31:15 PM

Latest Report: Jul 28, 2014 at 5:00 PM


Visibility: 22 mi

Pressure: 29.78 "Hg

Humidity: 55%

Dew point: 62 °F

Location of Bad NauheimLocation

Historic Weather in Bad Nauheim — Graph

°F

Bad Nauheim temperature yesterday

Maximum temperature yesterday: 81 °F (at 4:00 PM)
Minimum temperature yesterday: 59 °F (at 7:00 AM)
Average temperature yesterday: 71 °F

Past Weeks' High & Low Weather Summary

 TemperatureHumidityPressure
High89 °F (Jul 19, 6:00 PM)98% (Jul 14, 6:00 AM)30.20 "Hg (Jul 14, 6:00 AM)
Low55 °F (Jul 17, 6:00 AM)31% (Jul 18, 7:00 PM)29.74 "Hg (Jul 13, 7:00 PM)
Average70 °F71%29.97 "Hg
* Reported Jul 13 4:00 PM — Jul 28 4:00 PM, Bad Nauheim, Weather by CustomWeather, © 2014

Note: Actual official high and low records may vary slightly from our data, if they occured in-between our weather recording intervals... More about our weather records

Advertising

Bad Nauheim weather history for previous 24 hours

 ConditionsComfort  
Time TempWeatherWind HumidityBarometerVisibility
4:00 PM
Jul 28
83 °FPartly sunny.2 mph47%29.78 "Hg19 mi
3:00 PM82 °FPartly sunny.2 mph49%29.80 "Hg17 mi
2:00 PM80 °FPartly sunny.2 mph53%29.83 "Hg17 mi
1:00 PM78 °FOvercast.3 mph59%29.84 "Hg17 mi
12:00 PM75 °FOvercast.2 mph65%29.86 "Hg15 mi
11:00 AM73 °FOvercast.2 mph71%29.88 "Hg14 mi
10:00 AM72 °FScattered clouds.2 mph73%29.89 "HgN/A
9:00 AM68 °FPassing clouds.3 mph80%29.90 "HgN/A
8:00 AM65 °FPassing clouds.3 mph88%29.91 "HgN/A
7:00 AM62 °FOvercast.1 mph93%29.92 "HgN/A
6:00 AM60 °FOvercast.1 mph94%29.92 "HgN/A
5:00 AM61 °FPassing clouds.1 mph93%29.93 "HgN/A
4:00 AM62 °FClear.1 mph90%29.94 "HgN/A
3:00 AM63 °FPassing clouds.2 mph87%29.94 "HgN/A
2:00 AM64 °FOvercast.1 mph85%29.96 "HgN/A
1:00 AM65 °FPassing clouds.1 mph84%29.96 "HgN/A
12:00 AM69 °FPassing clouds.2 mph72%29.96 "HgN/A
11:00 PM
Jul 27
71 °FOvercast.5 mph68%29.96 "HgN/A
10:00 PM71 °FPassing clouds.2 mph67%29.96 "HgN/A
9:00 PM74 °FOvercast.3 mph62%29.94 "HgN/A
8:00 PM76 °FPartly sunny.2 mph56%29.94 "HgN/A
7:00 PM80 °FSunny.3 mph46%29.93 "HgN/A
6:00 PM81 °FSunny.3 mph43%29.92 "HgN/A
5:00 PM80 °FPassing clouds.5 mph47%29.93 "HgN/A
Weather by CustomWeather, © 2014

See weather overviewHow to use our weather pages